Location: Hardenberg
(52.5670°N, 6.6170°E)
Time: 06:38:08
(UTC+02:00)

ISS - Pass Details

Date: 17 May 2021
Orbit: 417 x 422 km, 51.6° (Epoch: 12 June)

Event Time Altitude Azimuth Distance (km) Brightness Sun altitude
Rises 02:03:27 0° 277° (W) 2,371 0.1 -17.7°
Reaches altitude 10° 02:05:33 10° 274° (W) 1,506 -1.0 -17.7°
Maximum altitude 02:08:54 62° 194° (SSW) 481 -3.8 -17.6°
Drops below altitude 10° 02:12:14 10° 113° (ESE) 1,506 -1.1 -17.5°
Sets 02:14:21 0° 110° (ESE) 2,370 0.0 -17.5°
